User: anonymous   Login
Location: Cluny
(50.9333°N, 112.8167°W)
Time: 18:43:35
(UTC-06:00)
Language:

Cosmos 1743 Rocket - Orbit

View from above orbital plane
View from above orbital plane
View from above satellite
View from above satellite

Ground track
Ground track

The orbit data is extracted from the following two-line orbital elements,

1 16720U 86034B   17084.73444664 +.00000115 +00000-0 +11105-4 0  9994
2 16720 082.5542 319.3090 0020781 021.0755 041.4671 14.83280150666897
Epoch (UTC): 25 March 2017 17:37:36
Eccentricity: 0.0020781
inclination: 82.5542°
perigee height: 604 km
apogee height: 633 km
right ascension of ascending node: 319.3090°
argument of perigee: 21.0755°
revolutions per day: 14.83280150
mean anomaly at epoch: 41.4671°
orbit number at epoch: 66689

The dashed part of the orbit path shows where the satellite is in the earth's shadow,  

DLR